Change the Weather History Date:

Friday, November 18, 2011

  Actual Average Record
Temperature  
Mean Temperature 66 °F -  
Max Temperature 80 °F 75 °F 89 °F (1949)
Min Temperature 51 °F 50 °F 33 °F (1958)
Growing Degree Days 16 (Base 50)    
Moisture  
Dew Point 40 °F    
Average Humidity 44    
Maximum Humidity 63    
Minimum Humidity 20    
Precipitation  
Precipitation 0.00 in - - ()
Sea Level Pressure  
Sea Level Pressure 29.82 in    
Wind  
Wind Speed 6 mph (SW)    
Max Wind Speed 21 mph    
Max Gust Speed 30 mph    
Visibility 10 miles    
Events      
Averages and records for this station are not official NWS values.
T = Trace of Precipitation, MM = Missing Value Source: NWS Daily Summary

Daily Weather History Graph

Daily Weather History Graph

Search for Another Location

Airport or City:

Trip Planner

Search our weather history database for the weather conditions in past years. The results will help you decide how hot, cold, wet, or windy it might be!

Date:

Astronomy

Nov. 18, 2011 Rise Set
Actual Time 6:15 AM PST 4:39 PM PST
Civil Twilight 5:48 AM PST 5:05 PM PST
Nautical Twilight 5:18 AM PST 5:35 PM PST
Astronomical Twilight 4:49 AM PST 6:05 PM PST
Moon No Moon Rise 12:06 PM PST (11/18)
Length of Visible Light 11h 17m
Length of Day
10h 24m
Waning Gibbous, 48% of the Moon is Illuminated
Nov 18
Waning Gibbous
Nov 24
New
Dec 2
First Quarter
Dec 10
Full
Dec 17
Last Quarter

Hourly Weather History & Observations

Time (PST) Temp. Dew Point Humidity Pressure Visibility Wind Dir Wind Speed Gust Speed Precip Events Conditions
12:53 AM 54.0 °F 41.0 °F 62% 29.88 in 10.0 mi West 4.6 mph - N/A   Clear
1:53 AM 53.1 °F 39.0 °F 59% 29.87 in 10.0 mi Calm Calm - N/A   Clear
2:53 AM 51.1 °F 39.0 °F 63% 29.86 in 10.0 mi Calm Calm - N/A   Clear
3:53 AM 51.1 °F 37.0 °F 59% 29.86 in 10.0 mi Calm Calm - N/A   Clear
4:53 AM 51.1 °F 39.0 °F 63% 29.85 in 10.0 mi Calm Calm - N/A   Clear
5:53 AM 52.0 °F 37.9 °F 59% 29.85 in 10.0 mi South 5.8 mph - N/A   Clear
6:53 AM 54.0 °F 39.0 °F 57% 29.87 in 6.0 mi ESE 3.5 mph - N/A   Haze
7:53 AM 60.8 °F 42.8 °F 52% 29.86 in 6.0 mi South 5.8 mph - N/A   Haze
8:53 AM 68.0 °F 44.1 °F 42% 29.86 in 9.0 mi ESE 8.1 mph - N/A   Clear
9:53 AM 72.0 °F 44.1 °F 37% 29.86 in 10.0 mi SE 5.8 mph - N/A   Clear
10:53 AM 75.0 °F 44.1 °F 33% 29.84 in 10.0 mi SE 6.9 mph - N/A   Clear
11:53 AM 78.1 °F 39.9 °F 25% 29.81 in 10.0 mi Variable 3.5 mph - N/A   Clear
12:53 PM 80.1 °F 36.0 °F 20% 29.78 in 10.0 mi SSW 5.8 mph - N/A   Clear
1:53 PM 79.0 °F 36.0 °F 21% 29.77 in 10.0 mi SW 6.9 mph - N/A   Clear
2:53 PM 78.1 °F 37.0 °F 23% 29.76 in 10.0 mi SW 12.7 mph 20.7 mph N/A   Clear
3:53 PM 73.9 °F 39.0 °F 28% 29.75 in 10.0 mi WSW 20.7 mph 29.9 mph N/A   Clear
4:53 PM 71.1 °F 37.9 °F 30% 29.75 in 10.0 mi WSW 16.1 mph - N/A   Clear
5:53 PM 68.0 °F 41.0 °F 37% 29.76 in 10.0 mi WSW 12.7 mph - N/A   Clear
6:53 PM 64.0 °F 43.0 °F 46% 29.78 in 10.0 mi West 8.1 mph - N/A   Clear
8:53 PM 64.4 °F 42.8 °F 45% 29.78 in 10.0 mi West 18.4 mph 27.6 mph N/A   Clear
9:53 PM 60.1 °F 43.0 °F 53% 29.81 in 10.0 mi WNW 10.4 mph - N/A   Clear
10:53 PM 60.1 °F 43.0 °F 53% 29.81 in 10.0 mi West 13.8 mph - N/A   Clear
11:53 PM 60.1 °F 44.1 °F 55% 29.80 in 10.0 mi West 19.6 mph 27.6 mph N/A   Clear